[[{"header":{"parameterUnit":"m.s-1","parameterCategory":2,"la1":30.2992,"la2":30.254,"lo1":-89.0895,"lo2":-89.0443,"dy":0.0025,"dx":0.0025,"nx":19,"ny":19,"refTime":"2026-04-26T03:00:00:Z","depth":"0","parameterNumber":2,"parameterNumberName":"U-component_of_CURRENTS"},"data":[0,0,0,-0.1064,-0.1063,-0.1052,-0.1052,-0.0997,-0.0996,0,0,0,0,0,0,0,0,0,0,0,-0.1067,-0.1067,-0.1064,-0.1063,-0.1052,-0.1052,-0.0997,-0.0996,0,0,0,0,0,0,0,0,0,0,0,-0.1067,-0.1067,-0.1067,-0.1063,-0.1052,-0.1052,-0.0997,-0.1015,0,0,0,0,0,0,0,0,0,0,-0.1031,-0.105,-0.1067,-0.1067,-0.1063,-0.1052,-0.1052,-0.1016,-0.1014,-0.0991,0,-0.0991,0,-0.0992,-0.0992,-0.0991,0,0,0,-0.1061,-0.1053,-0.104,-0.1067,-0.1063,-0.1052,-0.1057,-0.1015,-0.1012,-0.0987,-0.099,-0.0989,-0.0991,-0.0991,-0.0991,-0.1013,-0.1014,0,0,-0.1062,-0.1072,-0.1042,-0.1038,-0.1062,-0.1057,-0.1056,-0.1014,-0.1016,-0.099,-0.0987,-0.099,-0.0991,-0.099,-0.1013,-0.1014,0,0,0,-0.1065,-0.1072,-0.1062,-0.104,-0.1042,-0.1057,-0.1056,-0.1018,-0.1012,-0.0987,-0.099,-0.099,-0.0989,-0.1012,-0.1013,-0.1109,0,0,0,-0.1065,-0.1074,-0.1062,-0.1069,-0.1043,-0.1038,-0.1061,-0.1015,-0.1011,-0.099,-0.099,-0.0989,-0.1011,-0.1012,-0.1104,-0.1138,0,0,0,-0.1067,-0.1075,-0.1072,-0.107,-0.1065,-0.1039,-0.1031,-0.1014,-0.1012,-0.0991,-0.0989,-0.101,-0.1012,-0.11,-0.1132,-0.1227,0,0,0,-0.108,-0.1101,-0.1072,-0.1105,-0.1065,-0.1102,-0.1031,-0.1046,-0.1039,-0.099,-0.1011,-0.1013,-0.1099,-0.1128,-0.1222,-0.1243,-0.1267,0,0,-0.1117,-0.1106,-0.1128,-0.1102,-0.1152,-0.1103,-0.1163,-0.1112,-0.1055,-0.1019,-0.102,-0.1106,-0.1131,-0.1226,-0.1345,-0.1366,0,0,0,-0.1148,-0.1162,-0.1174,-0.1193,-0.1201,-0.1222,-0.1183,-0.1165,-0.1138,-0.1057,-0.1115,-0.1128,-0.1185,-0.1187,-0.1204,-0.1067,-0.1021,-0.1021,-0.1021,-0.121,-0.1216,-0.1261,-0.1273,-0.1297,-0.1306,-0.1325,-0.129,-0.1217,-0.1224,-0.1214,-0.1358,-0.1362,-0.1374,-0.1232,-0.1225,-0.1226,-0.1226,-0.1226,-0.1273,-0.1292,-0.1315,-0.1353,-0.1375,-0.1408,-0.1426,-0.1397,-0.1417,-0.1317,-0.1369,-0.1296,-0.1399,-0.124,-0.1233,-0.1231,-0.1231,-0.123,-0.123,-0.1301,-0.1308,-0.133,-0.138,-0.1429,-0.145,-0.1516,-0.1507,-0.1495,-0.1542,-0.154,-0.1537,-0.1393,-0.1564,-0.1564,-0.1565,-0.1565,-0.1566,-0.1566,-0.1302,-0.1329,-0.1352,-0.1404,-0.1425,-0.1478,-0.1553,-0.1612,-0.167,-0.1648,-0.1648,-0.1428,-0.1461,-0.1441,-0.1575,-0.1574,-0.1573,-0.1572,-0.1571,-0.1312,-0.1311,-0.1346,-0.1368,-0.1438,-0.1469,-0.1583,-0.1727,-0.1816,-0.1862,-0.162,-0.172,-0.1695,-0.1679,-0.1665,-0.185,-0.185,-0.185,-0.185,-0.13,-0.1309,-0.1327,-0.1357,-0.142,-0.1466,-0.1531,-0.1593,-0.1644,-0.1596,-0.1656,-0.1551,-0.1546,-0.1504,-0.1492,-0.147,-0.1601,-0.1601,-0.16,-0.1296,-0.13,-0.1299,-0.133,-0.1391,-0.1443,-0.1407,-0.1346,-0.1432,-0.1573,-0.1465,-0.1476,-0.1298,-0.1301,-0.1209,-0.1204,-0.1159,0,0]},{"header":{"parameterUnit":"m.s-1","parameterCategory":2,"la1":30.2992,"la2":30.254,"lo1":-89.0895,"lo2":-89.0443,"dy":0.0025,"dx":0.0025,"nx":19,"ny":19,"refTime":"2026-04-26T03:00:00:Z","depth":"0","parameterNumber":3,"parameterNumberName":"V-component_of_CURRENTS"},"data":[0,0,0,-0.0079,-0.0078,-0.0047,-0.0046,0.0058,0.0059,0,0,0,0,0,0,0,0,0,0,0,-0.0087,-0.0087,-0.0079,-0.0078,-0.0047,-0.0046,0.0058,0.0059,0,0,0,0,0,0,0,0,0,0,0,-0.0087,-0.0087,-0.0087,-0.0078,-0.0047,-0.0046,0.0057,0.0022,0,0,0,0,0,0,0,0,0,0,-0.0015,-0.0029,-0.0087,-0.0087,-0.0078,-0.0047,-0.0046,0.002,0.0024,0.0056,0,0.0049,0,0.0049,0.0066,0.0066,0,0,0,-0.0061,-0.0032,-0.0037,-0.0087,-0.0078,-0.0047,-0.0056,0.0022,0.0027,0.0062,0.0051,0.0054,0.0051,0.0066,0.0067,0.0167,0.0168,0,0,-0.0063,-0.0062,-0.0041,-0.0035,-0.0084,-0.0057,-0.0055,0.0024,0.0034,0.0051,0.0056,0.0053,0.0067,0.0068,0.0167,0.0167,0,0,0,-0.008,-0.0064,-0.0071,-0.0039,-0.0042,-0.0057,-0.0055,0.003,0.0023,0.0057,0.0054,0.0068,0.0069,0.0167,0.0167,0.0121,0,0,0,-0.008,-0.0075,-0.0072,-0.0068,-0.0044,-0.0012,-0.005,0.0018,0.0027,0.0054,0.0068,0.007,0.0166,0.0167,0.0121,0.0061,0,0,0,-0.0086,-0.0075,-0.0079,-0.0069,-0.0065,-0.0014,-0.0015,0.002,0.0024,0.0066,0.007,0.0166,0.0167,0.0121,0.0063,0.0043,0,0,0,-0.0075,-0.0086,-0.0079,-0.0084,-0.0066,-0.0043,-0.0015,0.0021,0.0055,0.0068,0.0166,0.0167,0.0121,0.0065,0.0045,0.0027,0.0018,0,0,-0.0086,-0.0087,-0.009,-0.0084,-0.0084,-0.0045,-0.0016,0.0039,0.008,0.0147,0.0149,0.0121,0.0064,0.0044,0.0073,0.0062,0,0,0,-0.0091,-0.0102,-0.0096,-0.0096,-0.007,-0.0053,0.001,0.0046,0.0106,0.01,0.0151,0.0115,0.0104,0.0098,0.0091,0.0309,0.0171,0.0171,0.0171,-0.0101,-0.0104,-0.012,-0.012,-0.0098,-0.0042,-0.0014,0.0049,0.0105,0.0131,0.0101,0.008,0.0077,0.007,0.0297,0.015,0.015,0.015,0.015,-0.0144,-0.0166,-0.0161,-0.0182,-0.0152,-0.0121,-0.0043,0.0001,0.0049,0.0096,0.0089,0.0078,0.0058,0.0303,0.0147,0.0148,0.0148,0.0148,0.0148,-0.017,-0.0188,-0.0202,-0.0238,-0.0239,-0.019,-0.021,-0.0123,-0.0024,-0.0026,-0.0015,-0.0014,0.0178,-0.0019,-0.0019,-0.0019,-0.002,-0.002,-0.002,-0.0195,-0.0217,-0.0272,-0.0302,-0.0334,-0.0353,-0.031,-0.0292,-0.0192,-0.0092,-0.0091,0.0208,0.0029,0.0009,-0.0025,-0.0024,-0.0024,-0.0023,-0.0023,-0.0248,-0.0258,-0.0348,-0.0398,-0.0491,-0.0575,-0.0524,-0.0478,-0.0405,-0.0359,0.0124,-0.0108,-0.0103,-0.0096,-0.0117,-0.0182,-0.0182,-0.0182,-0.0182,-0.0282,-0.0294,-0.0437,-0.0548,-0.0651,-0.0689,-0.0763,-0.0595,-0.0189,0.009,0.0185,0.027,0.0266,0.03,0.0299,0.0289,0.0328,0.0329,0.033,-0.0329,-0.0367,-0.0489,-0.0606,-0.0736,-0.0829,-0.0868,-0.0588,0.0077,0.0378,0.0496,0.0474,0.0629,0.0606,0.0682,0.0663,0.0653,0,0]}],[{"header":{"parameterUnit":"m.s-1","parameterCategory":2,"la1":30.2992,"la2":30.254,"lo1":-89.0895,"lo2":-89.0443,"dy":0.0025,"dx":0.0025,"nx":19,"ny":19,"refTime":"2026-04-26T03:00:00:Z","depth":"2","parameterNumber":2,"parameterNumberName":"U-component_of_CURRENTS"},"data":[0,0,0,-0.0819,-0.0821,-0.0907,-0.0907,-0.0976,-0.0977,0,0,0,0,0,0,0,0,0,0,0,-0.0772,-0.0772,-0.0819,-0.0821,-0.0907,-0.0907,-0.0976,-0.0977,0,0,0,0,0,0,0,0,0,0,0,-0.0772,-0.0772,-0.0772,-0.0821,-0.0907,-0.0907,-0.0976,-0.0921,0,0,0,0,0,0,0,0,0,0,-0.0842,-0.0797,-0.0772,-0.0772,-0.0822,-0.0907,-0.0907,-0.0918,-0.0924,-0.0926,0,-0.0931,0,-0.0964,-0.0981,-0.0981,0,0,0,-0.0818,-0.0792,-0.0827,-0.0772,-0.0823,-0.0907,-0.0868,-0.0922,-0.0928,-0.0934,-0.0932,-0.0936,-0.0965,-0.0981,-0.0981,-0.1043,-0.1043,0,0,-0.0814,-0.0779,-0.0823,-0.0831,-0.0833,-0.0865,-0.087,-0.0926,-0.0919,-0.0933,-0.0938,-0.0966,-0.0981,-0.0982,-0.1043,-0.1043,0,0,0,-0.0802,-0.0775,-0.081,-0.0827,-0.0851,-0.0867,-0.0874,-0.0917,-0.0931,-0.0939,-0.0967,-0.0982,-0.0983,-0.1042,-0.1043,-0.1113,0,0,0,-0.0799,-0.0769,-0.0807,-0.0786,-0.085,-0.0889,-0.0862,-0.0927,-0.0935,-0.0966,-0.0982,-0.0983,-0.1042,-0.1043,-0.1111,-0.1143,0,0,0,-0.077,-0.0766,-0.0775,-0.0784,-0.0827,-0.089,-0.0907,-0.0929,-0.0952,-0.0981,-0.0983,-0.1042,-0.1042,-0.1108,-0.1139,-0.1232,0,0,0,-0.0734,-0.0771,-0.0774,-0.0826,-0.0826,-0.0924,-0.0907,-0.0958,-0.0984,-0.0982,-0.1042,-0.1043,-0.1108,-0.1137,-0.1229,-0.1223,-0.1239,0,0,-0.0774,-0.0774,-0.0812,-0.0819,-0.0921,-0.0913,-0.1009,-0.1018,-0.0991,-0.102,-0.1022,-0.1111,-0.1139,-0.1232,-0.1255,-0.127,0,0,0,-0.0823,-0.0847,-0.088,-0.0931,-0.0989,-0.1047,-0.1061,-0.1061,-0.1072,-0.1011,-0.1103,-0.1118,-0.1175,-0.1163,-0.1175,-0.1045,-0.1045,-0.1045,-0.1045,-0.0849,-0.0893,-0.0965,-0.1026,-0.1077,-0.1137,-0.1178,-0.1174,-0.1135,-0.1133,-0.1169,-0.1277,-0.1262,-0.1272,-0.116,-0.116,-0.1161,-0.1161,-0.1161,-0.0929,-0.097,-0.1022,-0.11,-0.1155,-0.1216,-0.1279,-0.1261,-0.1311,-0.1228,-0.1281,-0.1228,-0.129,-0.1166,-0.1165,-0.1165,-0.1164,-0.1164,-0.1163,-0.0936,-0.0961,-0.1005,-0.1106,-0.1187,-0.1253,-0.136,-0.1371,-0.1371,-0.1418,-0.1415,-0.1413,-0.1347,-0.1445,-0.1445,-0.1446,-0.1447,-0.1447,-0.1447,-0.0913,-0.0967,-0.1015,-0.1117,-0.117,-0.1266,-0.1395,-0.1477,-0.1533,-0.1497,-0.1497,-0.1374,-0.1364,-0.1364,-0.1456,-0.1454,-0.1453,-0.1452,-0.1452,-0.0919,-0.0922,-0.1002,-0.1057,-0.121,-0.1304,-0.1449,-0.1614,-0.17,-0.1735,-0.1561,-0.1555,-0.1542,-0.153,-0.1533,-0.1664,-0.1664,-0.1664,-0.1664,-0.0891,-0.0913,-0.0994,-0.1089,-0.1229,-0.133,-0.1447,-0.1469,-0.1541,-0.1483,-0.149,-0.1388,-0.1386,-0.1356,-0.1348,-0.1344,-0.1426,-0.1425,-0.1424,-0.0888,-0.0915,-0.0963,-0.1071,-0.1233,-0.1349,-0.1338,-0.1188,-0.1233,-0.1405,-0.1351,-0.1667,-0.1533,-0.1523,-0.1485,-0.1469,-0.1466,0,0]},{"header":{"parameterUnit":"m.s-1","parameterCategory":2,"la1":30.2992,"la2":30.254,"lo1":-89.0895,"lo2":-89.0443,"dy":0.0025,"dx":0.0025,"nx":19,"ny":19,"refTime":"2026-04-26T03:00:00:Z","depth":"2","parameterNumber":3,"parameterNumberName":"V-component_of_CURRENTS"},"data":[0,0,0,-0.0477,-0.0477,-0.0479,-0.0479,-0.0405,-0.0404,0,0,0,0,0,0,0,0,0,0,0,-0.0476,-0.0477,-0.0477,-0.0477,-0.0479,-0.0479,-0.0405,-0.0404,0,0,0,0,0,0,0,0,0,0,0,-0.0476,-0.0477,-0.0477,-0.0478,-0.0479,-0.0479,-0.0405,-0.042,0,0,0,0,0,0,0,0,0,0,-0.0427,-0.0431,-0.0476,-0.0477,-0.0478,-0.0479,-0.0479,-0.0422,-0.0419,-0.0386,0,-0.0397,0,-0.0402,-0.0398,-0.0398,0,0,0,-0.0466,-0.0434,-0.0446,-0.0477,-0.0478,-0.0479,-0.0475,-0.0421,-0.0418,-0.0382,-0.0396,-0.0393,-0.04,-0.0398,-0.0398,-0.0319,-0.0319,0,0,-0.0466,-0.046,-0.0448,-0.0445,-0.049,-0.0475,-0.0476,-0.042,-0.0413,-0.0395,-0.0392,-0.0399,-0.0397,-0.0397,-0.032,-0.0319,0,0,0,-0.0473,-0.046,-0.0474,-0.0447,-0.0455,-0.0476,-0.0476,-0.0415,-0.0424,-0.0391,-0.0398,-0.0397,-0.0396,-0.032,-0.032,-0.0333,0,0,0,-0.0473,-0.0465,-0.0475,-0.0468,-0.0457,-0.0443,-0.0472,-0.0428,-0.0422,-0.0399,-0.0397,-0.0395,-0.032,-0.032,-0.0333,-0.0344,0,0,0,-0.0474,-0.0464,-0.0472,-0.0468,-0.0476,-0.0445,-0.045,-0.0427,-0.0426,-0.0398,-0.0395,-0.032,-0.032,-0.0333,-0.0344,-0.0294,0,0,0,-0.0457,-0.0489,-0.0472,-0.0498,-0.0476,-0.0484,-0.0451,-0.0444,-0.0426,-0.0396,-0.032,-0.032,-0.0333,-0.0344,-0.0295,-0.0265,-0.0259,0,0,-0.0495,-0.0493,-0.0509,-0.0495,-0.0519,-0.0482,-0.0474,-0.0437,-0.04,-0.0331,-0.033,-0.0333,-0.0344,-0.0294,-0.0235,-0.023,0,0,0,-0.052,-0.0535,-0.0537,-0.0543,-0.0534,-0.0504,-0.047,-0.0425,-0.0361,-0.0389,-0.0319,-0.0325,-0.0293,-0.0276,-0.0272,-0.0317,-0.0317,-0.0317,-0.0317,-0.0533,-0.0545,-0.0574,-0.0581,-0.0567,-0.0515,-0.0465,-0.0393,-0.037,-0.0332,-0.0325,-0.0284,-0.0267,-0.0263,-0.031,-0.031,-0.031,-0.031,-0.031,-0.0595,-0.062,-0.0606,-0.0643,-0.0594,-0.0568,-0.0452,-0.0408,-0.0301,-0.0305,-0.0272,-0.0279,-0.026,-0.031,-0.031,-0.031,-0.031,-0.031,-0.031,-0.0619,-0.0639,-0.0657,-0.0687,-0.066,-0.0599,-0.0542,-0.0442,-0.0318,-0.0283,-0.0237,-0.0237,-0.0283,-0.0266,-0.0266,-0.0265,-0.0265,-0.0265,-0.0265,-0.0637,-0.0665,-0.0714,-0.0732,-0.074,-0.0706,-0.059,-0.0507,-0.0343,-0.0245,-0.0243,-0.0268,-0.027,-0.0279,-0.0262,-0.0263,-0.0263,-0.0264,-0.0264,-0.0684,-0.0698,-0.0784,-0.0815,-0.0843,-0.0835,-0.0717,-0.0514,-0.0389,-0.0284,-0.0194,-0.0196,-0.018,-0.0183,-0.0189,-0.015,-0.015,-0.015,-0.015,-0.0698,-0.0719,-0.0843,-0.0921,-0.0954,-0.0903,-0.0792,-0.055,-0.0293,-0.0142,-0.0143,-0.0163,-0.0167,-0.0152,-0.0156,-0.0162,-0.0116,-0.0116,-0.0116,-0.0715,-0.0766,-0.086,-0.0963,-0.1017,-0.097,-0.0829,-0.051,-0.0154,-0.0118,-0.0167,-0.0142,-0.0175,-0.0181,-0.016,-0.0165,-0.0175,0,0]}],[{"header":{"parameterUnit":"m.s-1","parameterCategory":2,"la1":30.2992,"la2":30.254,"lo1":-89.0895,"lo2":-89.0443,"dy":0.0025,"dx":0.0025,"nx":19,"ny":19,"refTime":"2026-04-26T03:00:00:Z","depth":"4","parameterNumber":2,"parameterNumberName":"U-component_of_CURRENTS"},"data":[0,0,0,-0.0692,-0.0693,-0.0778,-0.0778,-0.0971,-0.0973,0,0,0,0,0,0,0,0,0,0,0,-0.0668,-0.0668,-0.0692,-0.0693,-0.0778,-0.0778,-0.0971,-0.0973,0,0,0,0,0,0,0,0,0,0,0,-0.0668,-0.0668,-0.0669,-0.0694,-0.0777,-0.0778,-0.097,-0.0887,0,0,0,0,0,0,0,0,0,0,-0.0796,-0.0754,-0.0668,-0.0669,-0.0694,-0.0777,-0.0778,-0.0883,-0.0893,-0.0955,0,-0.0967,0,-0.0972,-0.0987,-0.0988,0,0,0,-0.0701,-0.0746,-0.0771,-0.0669,-0.0695,-0.0777,-0.0742,-0.0887,-0.0899,-0.0968,-0.0969,-0.0976,-0.0975,-0.0988,-0.0989,-0.1283,-0.1285,0,0,-0.0697,-0.0685,-0.0763,-0.0778,-0.0719,-0.0739,-0.0744,-0.0894,-0.0907,-0.097,-0.098,-0.0978,-0.099,-0.0991,-0.1282,-0.1284,0,0,0,-0.0678,-0.0682,-0.0702,-0.0771,-0.0778,-0.0741,-0.0747,-0.09,-0.0908,-0.0982,-0.0981,-0.0991,-0.0994,-0.128,-0.1282,-0.1351,0,0,0,-0.0676,-0.067,-0.07,-0.0694,-0.0775,-0.0828,-0.0751,-0.0897,-0.0914,-0.098,-0.0991,-0.0996,-0.1278,-0.1281,-0.1345,-0.1355,0,0,0,-0.0664,-0.0669,-0.0679,-0.0693,-0.0725,-0.0825,-0.084,-0.0901,-0.0914,-0.0988,-0.0996,-0.1277,-0.128,-0.134,-0.1347,-0.1341,0,0,0,-0.0648,-0.0665,-0.0679,-0.0706,-0.0725,-0.0795,-0.0839,-0.0933,-0.1001,-0.0992,-0.1278,-0.1282,-0.1339,-0.1343,-0.1337,-0.0985,0,0,0,-0.0659,-0.0666,-0.0683,-0.0697,-0.0734,-0.0784,-0.0875,-0.0998,-0.1086,-0.1232,-0.1238,-0.1347,-0.1347,-0.134,-0.1219,0,0,0,0,-0.0679,-0.0688,-0.0704,-0.073,-0.0782,-0.087,-0.0964,-0.1065,-0.1278,-0.1142,-0.1408,-0.1406,-0.1398,-0.1187,-0.1301,-0.1301,-0.13,-0.13,-0.1299,-0.0654,-0.0683,-0.0705,-0.0755,-0.0819,-0.0954,-0.1073,-0.1244,-0.1309,-0.1462,-0.1508,-0.1612,-0.1401,-0.157,-0.1571,-0.1571,-0.1572,-0.1572,-0.1572,-0.0647,-0.0653,-0.0711,-0.0754,-0.0857,-0.0964,-0.1231,-0.1351,-0.1582,-0.1635,-0.1624,-0.1334,-0.158,-0.1579,-0.1578,-0.1577,-0.1576,-0.1575,-0.1575,-0.061,-0.0617,-0.0656,-0.0722,-0.0844,-0.102,-0.1166,-0.1482,-0.1647,-0.1713,-0.1462,-0.1646,-0.1583,-0.1716,-0.1716,-0.1716,-0.1716,-0.1717,-0.1717,-0.055,-0.0583,-0.0602,-0.0696,-0.075,-0.0909,-0.1214,-0.1272,-0.1514,-0.1499,-0.1738,-0.1659,-0.1654,-0.1592,-0.1718,-0.1718,-0.1717,-0.1717,-0.1717,-0.0498,-0.0513,-0.0529,-0.0562,-0.0635,-0.0723,-0.098,-0.105,-0.1092,-0.1059,-0.1354,-0.1372,-0.1294,-0.1298,-0.1219,-0.1239,-0.1234,-0.123,0,-0.0447,-0.0458,-0.0448,-0.045,-0.0456,-0.061,-0.054,-0.0589,-0.0864,-0.0949,-0.1057,-0.1396,-0.1408,-0.1318,-0.1315,-0.122,0,0,0,-0.0401,-0.0403,-0.0369,-0.0367,-0.0381,-0.0422,-0.052,-0.0536,-0.0896,-0.069,-0.1126,-0.1153,-0.1148,-0.1721,-0.1643,-0.1637,-0.1531,0,0]},{"header":{"parameterUnit":"m.s-1","parameterCategory":2,"la1":30.2992,"la2":30.254,"lo1":-89.0895,"lo2":-89.0443,"dy":0.0025,"dx":0.0025,"nx":19,"ny":19,"refTime":"2026-04-26T03:00:00:Z","depth":"4","parameterNumber":3,"parameterNumberName":"V-component_of_CURRENTS"},"data":[0,0,0,0.0062,0.0062,0.0076,0.0076,0.0049,0.0048,0,0,0,0,0,0,0,0,0,0,0,0.0055,0.0055,0.0062,0.0062,0.0076,0.0076,0.0049,0.0048,0,0,0,0,0,0,0,0,0,0,0,0.0055,0.0055,0.0055,0.0062,0.0076,0.0076,0.0049,0.0049,0,0,0,0,0,0,0,0,0,0,0.0041,0.0042,0.0055,0.0055,0.0062,0.0076,0.0076,0.0049,0.0049,0.003,0,0.0034,0,0.0041,0.0046,0.0046,0,0,0,0.006,0.0043,0.0047,0.0055,0.0063,0.0076,0.0069,0.005,0.0049,0.0029,0.0034,0.0033,0.0041,0.0045,0.0045,0.003,0.003,0,0,0.0059,0.0056,0.0047,0.0046,0.0067,0.0069,0.007,0.005,0.0048,0.0034,0.0033,0.004,0.0045,0.0045,0.003,0.003,0,0,0,0.0058,0.0055,0.006,0.0047,0.0054,0.0069,0.007,0.0049,0.0051,0.0032,0.004,0.0045,0.0044,0.003,0.003,0.0059,0,0,0,0.0058,0.0055,0.006,0.0058,0.0054,0.0058,0.007,0.0052,0.005,0.004,0.0045,0.0044,0.0029,0.003,0.0058,0.0001,0,0,0,0.0054,0.0055,0.0057,0.0057,0.0065,0.0059,0.006,0.0052,0.0055,0.0046,0.0044,0.0029,0.003,0.0057,0.0001,0.0061,0,0,0,0.0049,0.0026,0.0057,0.0018,0.0065,0.0008,0.006,0.0038,0.0026,0.0045,0.003,0.003,0.0057,0.0002,0.006,-0.0083,0,0,0,0.001,0.0021,-0.0008,0.0019,-0.0052,0.0007,-0.0062,-0.0034,0.0029,0.0032,0.0032,0.0059,0.0002,0.0061,-0.0063,0,0,0,0,-0.0029,-0.0047,-0.0067,-0.0095,-0.0116,-0.014,-0.0108,-0.0044,0.0049,0.0026,0.0056,0.0018,0.0056,-0.003,0.0031,0.0031,0.0031,0.0031,0.0031,-0.0078,-0.0104,-0.0169,-0.0204,-0.0239,-0.0237,-0.0211,-0.0116,-0.0033,0.0058,0.0044,0.0097,0.0008,0.0082,0.0083,0.0083,0.0083,0.0083,0.0083,-0.0156,-0.0201,-0.0241,-0.0309,-0.034,-0.0384,-0.0292,-0.0185,-0.0008,0.0059,0.01,0.0006,0.0086,0.0085,0.0085,0.0085,0.0084,0.0084,0.0084,-0.0191,-0.0219,-0.0258,-0.0358,-0.043,-0.0442,-0.0437,-0.0265,-0.0031,0.0037,0.003,0.0109,0.0107,0.0133,0.0133,0.0133,0.0133,0.0134,0.0134,-0.0205,-0.0252,-0.032,-0.0411,-0.0471,-0.0514,-0.0449,-0.0379,-0.0153,-0.001,0.0081,0.0114,0.0112,0.0109,0.0134,0.0134,0.0134,0.0134,0.0134,-0.0258,-0.0264,-0.0361,-0.0426,-0.055,-0.058,-0.055,-0.0459,-0.0313,-0.0211,-0.0021,-0.0013,-0.0042,-0.004,-0.0049,-0.0071,-0.0072,-0.0074,0,-0.0277,-0.0293,-0.0408,-0.0506,-0.0587,-0.0617,-0.0564,-0.0519,-0.0303,-0.022,-0.0247,-0.003,-0.0024,-0.006,-0.0061,-0.0075,0,0,0,-0.0316,-0.0334,-0.0419,-0.0511,-0.0609,-0.0558,-0.0545,-0.0507,-0.0293,-0.0391,-0.0118,-0.0107,-0.0219,0.0135,0.0108,0.0106,0.01,0,0]}]]